Dewpoint
35 30 32 33 33 34 34 35 37 37 36 38 39 40 42 40 40 40 40 40 36 33 31 31 29 27 26 27 24 27 28 29 29 25 21 18 17 15 13 18 13 21 18 17 19 18 17 17 20 21 26 30 30 31
30 32 33 33 33 32 33 33 33 36 36 40 41 39 40 42 41 40 36 35 33 28 29 30 30 29 27 24 22 28 22 24 25 23 20 16 17 15 14 13 12 14 19 18 18 19 32 28 25 29 30 29 31 33
32 33 32 32 32 32 32 32 33 36 35 39 41 40 41 40 37 35 33 34 29 29 26 28 29 32 34 35 33 26 24 24 30 33 29 28 23 19 19 18 16 16 19 22 22 21 23 28 29 30 30 29 32 33
31 32 32 32 32 32 32 32 33 36 37 38 39 39 40 38 37 34 33 32 27 24 22 21 24 26 30 32 33 32 26 32 33 33 31 28 26 31 26 22 23 24 23 23 23 23 28 27 29 30 29 30 31 32
31 31 31 31 32 32 32 32 32 33 37 38 36 39 40 38 37 36 34 31 27 23 21 21 29 27 26 27 30 30 31 29 29 29 28 26 24 26 26 27 23 21 23 24 21 30 32 31 30 30 30 30 31 30
30 29 29 30 31 31 31 32 35 34 37 38 36 38 39 39 38 35 33 34 32 29 24 20 32 27 27 28 26 30 30 29 34 32 27 28 28 30 25 21 25 25 26 27 30 32 33 32 31 31 30 30 30 29
30 29 29 29 30 31 31 33 35 36 37 38 37 36 39 39 35 31 30 35 33 32 28 22 18 32 31 29 29 30 32 34 33 34 29 27 28 30 25 23 26 31 30 30 30 29 29 28 28 28 28 29 29 28
29 29 30 31 31 31 31 34 35 39 38 39 38 37 39 38 35 29 39 38 33 31 31 22 22 31 36 32 31 36 34 34 34 30 31 27 31 32 29 29 26 29 31 30 29 29 28 28 26 26 26 27 26 26
34 33 32 32 32 32 32 35 34 38 38 38 39 37 36 33 28 32 39 39 38 33 23 22 19 25 33 32 33 33 34 28 33 29 25 28 24 26 26 31 29 29 30 30 28 27 27 25 24 24 24 24 24 24
40 37 37 35 34 33 32 33 36 38 39 37 36 28 29 29 38 35 32 30 31 32 33 26 33 28 31 32 30 31 31 30 25 26 27 31 25 30 28 27 28 29 29 28 27 26 26 25 24 24 23 23 23 23
41 41 39 37 35 34 34 34 37 38 37 31 31 30 35 38 34 32 27 25 25 27 29 25 25 28 33 30 30 29 26 29 26 28 26 23 18 28 28 28 29 28 28 28 27 27 26 26 24 24 23 23 23 23
42 41 39 38 37 36 36 35 37 33 31 34 35 37 36 31 31 27 26 27 28 26 29 28 29 32 33 32 28 25 23 22 19 24 20 15 28 29 29 29 28 28 28 27 26 26 27 26 25 24 23 23 24 24
38 39 39 38 38 37 37 39 40 39 39 38 35 32 30 30 25 22 18 19 23 28 28 28 28 29 27 28 26 22 23 19 25 23 15 23 28 28 28 29 28 28 28 27 27 27 27 26 26 25 25 26 26 26
40 40 39 38 38 39 39 40 39 39 37 33 28 24 25 23 22 22 27 29 31 31 26 27 27 26 27 27 27 24 26 24 19 16 15 24 28 28 28 28 27 27 29 28 28 27 28 28 28 28 28 27 25 22
40 39 39 38 37 38 40 40 40 37 30 27 28 21 21 26 28 28 31 30 31 32 30 27 24 23 24 27 25 23 22 17 16 18 27 28 30 30 30 30 30 29 29 28 28 27 26 26 26 26 26 26 24 23
38 37 36 38 37 35 36 36 35 34 29 27 27 26 27 29 28 29 30 29 32 31 30 23 21 24 22 20 18 18 11 10 23 27 29 30 31 32 31 31 30 30 30 29 28 27 26 25 25 24 24 24 23 22
33 31 35 37 35 33 32 32 30 27 27 26 28 29 30 31 29 30 32 31 32 30 27 18 20 20 22 17 14 17 22 27 29 30 31 33 32 31 31 30 29 29 29 28 28 27 26 26 27 24 23 23 23 23
29 31 33 34 32 30 30 29 28 25 24 28 28 29 30 31 30 31 32 33 32 26 23 22 24 20 21 16 17 26 27 29 31 30 31 32 32 31 31 30 29 29 28 28 27 26 26 25 24 24 24 22 22 21
29 31 34 33 30 26 25 27 28 23 27 28 29 30 30 31 31 31 32 31 29 27 26 24 23 18 22 25 27 29 29 28 27 29 29 31 31 30 30 30 29 29 29 28 26 26 26 25 24 24 23 22 21 21
30 32 31 30 31 23 22 25 28 24 24 27 28 29 29 29 30 32 31 29 27 25 23 22 24 27 28 29 28 28 29 29 28 27 28 30 30 30 30 29 29 29 28 27 27 26 25 25 25 24 23 23 23 21
25 27 29 29 26 25 25 23 24 24 25 25 27 27 28 28 29 30 28 27 26 24 25 27 29 29 30 30 29 29 29 28 26 25 26 27 29 29 29 29 28 27 26 26 26 25 25 24 24 24 25 25 27 25
25 29 25 26 24 24 25 26 23 25 23 24 25 24 24 27 28 28 26 26 25 27 28 27 27 28 27 26 27 28 28 27 27 26 27 28 27 27 27 27 26 27 27 27 26 27 26 26 25 25 26 27 26 25
27 27 24 24 25 25 25 26 23 21 21 22 23 21 23 24 25 24 23 25 26 27 28 28 27 26 27 26 26 26 25 24 23 24 25 25 28 29 27 27 28 27 26 27 27 27 27 25 25 26 27 25 25 24
24 24 25 25 24 23 26 23 20 20 21 19 18 19 19 22 23 22 21 22 27 28 27 29 28 27 26 25 24 24 25 25 25 27 26 25 24 25 25 25 24 25 26 26 25 26 26 24 24 24 24 24 23 21
16 21 25 21 24 23 21 21 21 18 18 20 18 18 19 21 20 20 19 23 26 28 28 28 27 27 27 27 28 27 28 27 26 26 28 25 24 24 24 24 23 24 24 25 24 24 24 24 22 23 22 23 21 21
9 23 21 21 22 19 19 18 19 19 19 19 19 19 20 19 18 18 17 26 26 29 30 30 29 27 27 27 27 28 28 27 26 26 25 24 24 26 25 23 22 23 24 26 25 23 22 21 21 22 22 22 21 21
10 19 22 24 23 20 21 22 20 20 20 18 19 20 19 16 16 19 26 28 27 30 29 29 27 25 24 25 26 29 29 29 28 27 28 26 25 25 27 25 24 26 26 25 25 23 22 20 20 21 21 22 21 22
20 20 19 22 22 22 21 20 20 19 19 20 20 18 17 17 19 25 26 28 29 30 30 29 28 27 26 28 29 30 30 30 29 30 29 29 29 30 29 29 29 27 27 26 25 24 23 22 21 21 21 20 21 23
21 23 21 19 21 21 21 20 20 20 21 21 20 18 20 21 27 27 28 28 29 29 28 28 29 30 30 30 30 30 30 29 27 25 25 25 26 26 28 28 27 27 26 25 24 24 23 23 23 23 22 22 22 23
21 24 21 19 17 15 21 23 23 26 24 22 24 22 22 25 30 31 30 29 28 28 29 29 29 28 26 27 27 27 29 29 29 27 23 24 26 29 28 27 27 26 26 25 23 23 23 23 24 23 22 22 21 20
22 23 21 21 19 22 23 25 26 25 25 23 25 22 22 26 29 30 29 30 30 30 28 27 28 29 28 28 27 26 26 28 28 28 28 28 28 27 26 26 27 26 26 24 23 22 21 20 20 19 19 18 18 18
21 19 18 16 18 24 24 22 21 21 22 22 20 23 24 24 21 27 29 29 28 27 27 28 27 27 30 30 31 29 27 30 28 27 27 26 26 26 26 26 27 26 25 24 24 22 21 20 20 20 19 18 19 18
21 21 20 19 18 18 21 20 18 17 18 17 18 20 21 23 21 29 27 29 29 29 29 29 30 31 31 30 30 30 28 29 29 27 27 26 26 25 25 26 26 26 25 23 23 23 22 22 22 21 21 21 19 19
Wind_Speed
13 11 10 10 8 6 6 2 3 10 23 28 22 15 23 30 25 5 9 8 8 5 7 4 5 13 13 16 16 12 11 9 11 10 9 14 12 17 21 19 21 12 11 16 20 26 25 17 3 16 9 1 1 1
13 10 7 6 4 3 2 5 3 5 17 16 24 25 17 25 18 15 7 6 1 6 6 3 5 6 7 12 13 14 8 10 10 11 11 9 14 12 20 27 23 28 23 20 15 9 7 7 12 10 4 3 2 4
11 9 7 6 4 3 3 4 7 5 9 14 12 20 23 21 12 5 12 9 6 6 6 6 10 10 7 5 5 11 13 6 4 1 7 6 11 13 21 23 21 24 19 15 11 14 19 11 10 7 7 5 5 7
10 9 8 7 6 4 4 5 4 3 8 6 4 12 18 17 9 10 12 12 8 6 4 7 12 14 14 13 11 10 4 2 0 2 8 6 5 5 12 14 14 13 9 12 19 21 6 10 16 12 7 5 8 11
12 11 9 9 8 6 6 6 6 5 3 5 6 9 18 15 8 8 7 7 4 3 2 5 2 12 17 18 19 17 12 8 4 6 8 11 15 11 15 12 17 18 19 19 21 4 13 5 12 13 12 10 12 16
14 14 13 12 10 9 8 8 7 5 1 4 9 8 14 16 9 6 5 3 4 1 0 5 2 8 19 17 18 16 13 10 7 5 8 10 13 6 6 11 12 8 8 9 10 1 4 3 4 7 11 11 13 14
17 17 17 16 14 12 10 8 5 4 1 2 15 10 13 17 10 3 3 3 13 7 2 4 3 3 7 12 11 10 6 4 6 3 8 14 14 5 13 23 7 9 4 4 3 5 4 6 4 8 10 11 13 14
22 22 21 18 15 13 10 7 5 9 1 4 17 16 15 13 2 4 7 5 9 3 3 4 1 3 4 6 8 3 6 6 6 6 5 10 5 5 8 14 15 6 5 6 6 3 2 6 10 10 11 14 16 17
30 28 24 22 20 17 15 11 7 6 2 7 24 21 12 4 3 6 17 11 12 3 4 5 5 3 6 6 5 5 5 6 6 10 13 7 13 11 9 6 8 8 7 6 5 4 6 9 11 12 12 14 16 17
32 40 33 27 20 17 15 12 9 8 7 27 23 7 4 6 21 14 4 3 2 5 5 6 0 5 10 7 8 9 9 8 9 13 9 7 9 9 7 3 7 8 7 8 7 6 7 9 10 11 12 12 13 16
17 22 32 32 29 24 21 15 13 9 25 13 5 4 9 19 5 3 3 5 7 5 7 9 13 8 9 10 9 7 7 7 7 8 14 6 9 10 6 9 11 9 9 4 2 2 5 8 11 12 12 12 14 17
23 25 27 29 29 26 23 20 16 16 8 6 8 4 5 5 4 6 6 6 8 6 9 7 7 9 5 3 3 6 3 5 3 11 5 4 6 8 10 10 9 10 7 4 3 3 6 9 10 10 11 12 13 14
30 30 29 30 31 29 23 20 15 19 15 5 4 5 5 6 7 5 6 5 3 7 6 8 8 5 7 4 5 2 3 2 5 4 4 3 9 9 11 11 10 8 6 6 7 7 7 9 9 10 10 12 15 16
31 30 29 27 25 23 21 14 17 9 4 3 3 3 4 4 5 3 7 5 3 2 9 9 4 2 2 3 1 3 2 2 4 4 3 6 10 11 11 10 11 9 8 9 9 9 11 12 12 12 13 14 16 16
25 25 24 20 14 11 18 19 18 4 3 1 1 2 2 1 1 2 4 1 2 4 8 8 3 2 3 3 2 3 3 4 4 1 4 7 11 11 10 9 10 10 10 9 9 10 10 11 11 11 11 12 13 15
12 10 7 9 4 5 13 9 4 3 1 1 2 2 2 4 4 3 0 3 5 5 3 2 2 2 1 2 3 3 2 3 3 3 5 7 10 10 10 9 9 10 10 10 9 10 10 11 10 10 11 11 12 14
6 4 8 7 4 4 5 6 3 1 1 2 2 1 2 3 4 2 2 2 1 3 2 1 2 1 2 2 2 1 1 4 6 5 4 7 12 11 10 11 10 10 10 10 10 10 10 10 13 11 11 10 11 12
6 7 11 9 3 4 2 1 1 1 1 3 2 3 2 3 1 1 0 2 2 2 0 2 2 2 2 1 2 4 4 4 6 6 6 7 10 9 9 10 10 10 10 10 10 11 11 11 10 10 11 11 12 12
6 8 9 7 2 1 1 1 2 2 1 2 2 1 1 1 2 2 2 2 3 3 4 2 1 1 1 2 2 5 7 6 8 6 6 7 9 9 10 10 10 9 11 11 12 10 10 10 8 10 11 13 11 13
3 5 12 5 5 1 2 1 2 1 2 2 2 1 1 1 1 3 2 1 0 1 1 1 1 2 2 3 1 3 7 7 9 8 7 6 7 9 9 9 9 10 9 8 8 8 9 8 7 9 11 12 12 14
3 7 7 3 2 3 2 1 2 1 3 2 3 2 1 1 1 1 1 1 1 1 2 1 4 4 3 3 2 4 6 7 6 4 8 8 7 8 7 6 8 8 8 9 9 9 8 8 9 9 10 11 10 12
4 7 2 2 2 2 2 2 1 2 2 1 4 2 1 2 2 2 2 3 2 2 1 3 5 6 5 3 4 5 7 8 7 7 8 11 9 8 8 8 8 7 6 6 7 8 8 6 8 9 10 10 11 13
6 2 1 2 2 2 1 1 1 2 3 3 3 2 2 2 2 2 3 2 2 3 4 5 6 3 7 6 7 7 6 6 6 5 6 6 6 5 7 7 6 7 7 6 6 7 7 8 8 9 10 12 12 13
0 2 2 1 1 2 0 1 2 3 1 3 3 2 2 2 1 3 5 4 4 6 7 6 7 7 6 6 5 7 7 6 6 6 5 6 6 6 6 6 6 6 5 7 7 7 9 9 10 10 11 13 14 15
3 1 0 1 1 2 3 2 2 3 3 4 2 3 2 3 3 4 4 6 9 10 9 9 8 9 8 7 6 6 6 6 6 6 5 4 5 6 5 5 5 6 6 7 9 9 9 9 10 11 12 13 14 15
3 1 1 2 2 3 3 2 4 4 3 3 5 1 1 3 3 5 2 4 7 10 10 9 9 8 7 7 8 9 8 7 6 5 6 5 5 7 6 6 6 6 7 7 9 10 10 10 11 12 12 12 14 15
3 3 2 1 1 1 1 1 1 3 3 4 3 4 4 4 5 2 2 1 3 3 8 9 7 7 7 6 4 4 7 7 3 3 4 5 3 3 4 6 5 3 10 10 8 10 11 11 11 12 12 12 14 15
1 1 3 3 3 2 2 2 3 4 3 1 2 5 3 3 1 2 1 2 4 5 5 4 3 4 5 5 6 7 5 5 5 4 5 4 2 2 3 4 4 5 6 8 8 9 9 11 11 12 12 12 13 13
2 1 2 2 2 3 4 4 3 2 2 3 2 3 2 1 0 2 3 5 5 5 5 6 5 4 5 4 5 6 7 9 9 9 9 7 6 6 6 6 6 7 7 9 9 8 10 10 11 11 12 12 12 12
1 1 2 1 3 4 3 2 2 2 4 4 4 6 9 7 5 5 6 8 8 8 8 7 8 9 9 10 9 7 5 5 3 5 7 6 3 10 8 7 8 8 9 11 11 11 10 11 10 11 12 12 12 12
1 2 3 3 3 1 2 2 4 5 5 7 10 13 13 6 3 9 12 11 10 9 10 10 9 10 10 10 10 10 8 8 6 5 4 3 4 5 7 8 8 9 10 12 13 13 14 13 12 12 13 13 13 13
2 3 3 3 2 2 2 3 3 4 4 7 11 8 5 5 7 6 6 13 13 14 14 13 12 12 9 6 6 5 4 7 8 8 9 7 5 5 7 7 8 9 10 12 12 12 15 14 12 13 14 14 14 14
3 4 4 4 3 3 3 3 3 4 5 5 6 9 10 6 6 2 2 8 10 12 13 12 10 9 12 11 9 8 7 6 6 7 8 8 7 7 7 7 8 9 11 11 11 12 14 13 12 12 13 13 14 13
Wind_Direction
225 234 252 261 246 234 252 257 268 323 328 307 237 205 175 153 156 132 119 122 126 131 156 185 182 184 191 196 189 169 162 211 187 210 235 239 248 251 257 254 259 233 219 221 233 245 256 249 191 215 269 282 276 358
214 223 225 211 203 227 281 327 337 348 330 314 167 157 171 158 157 137 108 118 42 128 110 166 211 259 274 223 224 172 210 163 198 210 226 250 245 251 250 252 248 243 248 265 251 272 233 264 222 228 247 263 220 173
201 199 195 201 211 238 288 322 324 318 340 16 122 150 158 145 147 154 136 133 126 98 138 182 213 223 246 234 253 207 221 191 185 260 269 271 251 247 243 245 249 254 220 232 260 261 241 240 205 215 218 228 181 151
203 208 207 209 218 244 277 292 310 250 309 336 102 150 161 133 128 128 142 162 147 140 170 188 204 206 201 215 221 226 227 141 75 209 259 263 267 339 284 276 273 262 297 258 251 259 245 245 244 227 205 196 166 149
209 213 218 219 222 239 263 284 290 291 330 165 158 143 146 134 138 82 103 146 100 14 193 148 204 233 212 210 220 223 209 191 217 237 230 248 264 272 262 276 267 267 257 251 257 285 248 281 221 208 188 190 170 159
217 223 226 224 223 231 248 261 275 259 193 126 166 148 153 154 147 93 59 178 210 304 19 217 316 214 200 210 212 215 206 200 180 207 252 253 245 259 270 273 293 276 224 259 249 297 88 77 116 170 184 187 174 161
233 232 229 224 216 223 231 247 255 177 57 167 176 175 157 158 178 66 60 41 162 173 198 249 214 70 221 199 205 212 197 179 202 213 236 258 261 253 268 260 257 278 258 221 204 153 139 161 172 169 166 164 159 153
237 231 227 221 218 217 217 229 175 121 159 239 173 170 153 171 343 192 43 78 164 134 230 277 154 199 153 153 177 142 165 173 202 232 215 237 229 210 257 261 231 197 196 186 178 231 308 148 143 149 153 156 159 154
239 237 226 219 215 204 199 186 150 134 222 152 149 141 126 171 175 96 96 94 1 277 234 219 225 234 159 166 143 133 151 179 187 212 227 215 231 228 245 200 182 177 185 182 184 157 146 154 151 154 160 168 165 158
225 215 214 209 201 195 183 182 160 185 144 132 136 143 157 171 111 124 137 108 246 219 239 242 297 221 179 170 162 162 168 201 195 212 182 237 219 209 195 191 152 153 149 148 149 163 160 158 160 162 169 169 164 162
150 172 186 189 192 189 186 180 183 208 146 155 147 134 105 130 142 167 193 205 202 228 211 236 224 229 200 199 158 170 175 189 206 170 183 222 232 170 152 133 131 134 134 107 75 110 168 168 169 168 165 162 157 161
102 133 146 161 169 169 169 183 184 151 158 129 113 116 140 175 196 207 201 196 219 220 177 177 210 209 158 144 102 178 167 200 179 162 209 241 112 129 138 134 136 138 122 86 60 126 152 154 162 163 162 159 154 148
84 98 117 130 141 152 159 165 190 122 119 124 185 154 190 169 204 218 194 218 203 176 192 170 165 163 157 169 137 205 150 143 140 181 216 45 121 149 147 142 133 126 112 95 91 101 123 134 137 147 142 126 127 128
86 98 109 121 133 139 154 167 141 151 245 225 177 165 245 175 227 236 343 21 5 298 170 161 136 87 84 73 45 102 91 184 202 217 207 131 156 158 148 138 137 121 104 104 105 107 100 98 99 108 123 133 135 144
73 77 89 96 107 125 151 172 181 273 304 128 247 194 223 323 341 301 309 258 274 244 147 150 121 103 77 89 76 119 154 204 222 218 91 118 144 139 130 129 126 125 120 118 120 122 125 128 133 130 136 148 152 153
106 78 31 354 87 140 186 197 204 263 326 49 14 216 155 220 150 194 163 170 193 168 163 143 123 89 103 137 173 203 218 222 117 87 109 144 142 139 137 132 129 130 129 127 127 131 134 136 138 141 147 154 155 159
152 60 336 316 280 127 169 207 174 332 350 333 63 43 307 357 62 105 273 140 180 191 135 132 116 98 139 209 201 213 301 74 121 110 77 138 152 146 136 130 128 130 134 135 133 136 136 135 128 141 150 151 156 157
54 57 12 354 208 162 120 60 141 182 61 16 331 30 356 345 317 87 2 4 242 145 118 82 136 169 206 221 189 127 113 101 86 98 82 104 121 127 135 139 136 141 142 143 142 141 144 149 155 162 149 154 148 151
357 0 8 12 302 76 106 99 291 125 108 141 149 176 131 164 60 3 23 37 56 71 113 133 166 215 165 70 109 125 149 164 151 130 104 83 121 133 134 134 138 145 149 156 160 162 162 169 167 158 162 167 167 164
323 7 2 358 322 166 122 83 261 124 164 138 154 149 92 68 10 6 5 6 95 169 153 183 129 83 66 123 118 146 158 154 147 155 141 127 129 135 143 151 158 155 154 161 169 155 159 164 170 172 173 179 173 174
293 5 328 305 46 46 79 108 85 62 150 164 148 207 150 154 176 208 208 318 224 208 168 86 120 125 80 99 122 128 144 168 178 180 171 157 155 147 152 136 146 166 170 177 177 185 187 190 181 178 173 180 175 170
357 325 332 20 74 85 78 14 53 144 201 144 180 229 189 217 220 201 299 219 212 139 150 161 151 152 150 139 132 137 136 127 114 107 88 126 159 164 168 165 172 176 184 179 192 178 192 174 159 170 176 167 162 162
311 313 33 25 95 91 120 254 168 188 171 185 191 206 220 221 223 238 240 214 185 180 173 167 158 134 125 130 135 136 145 150 163 167 169 182 122 114 152 175 169 177 184 176 168 160 168 154 163 172 163 157 161 158
224 44 44 48 32 134 202 195 181 171 160 202 199 235 208 222 251 236 245 202 144 158 177 166 167 153 148 156 158 153 155 151 136 137 172 178 181 183 181 188 194 191 196 167 170 166 156 173 173 173 169 171 169 167
274 351 297 128 224 155 171 175 226 208 213 209 211 240 206 211 225 237 243 178 176 185 180 181 186 194 187 187 172 161 174 180 175 166 185 195 179 157 177 176 183 190 182 174 178 176 174 173 184 183 181 180 175 175
246 200 217 177 171 211 193 206 204 209 203 213 217 193 211 222 238 239 215 140 171 182 173 182 193 184 190 190 178 184 190 189 188 184 175 188 178 174 195 191 191 201 199 190 180 191 188 186 190 184 185 183 179 176
239 197 182 180 263 182 198 236 204 213 212 215 197 191 203 229 233 183 113 189 177 144 179 187 209 216 218 203 183 147 153 181 180 111 117 165 189 196 173 198 212 154 165 187 190 192 189 189 188 186 183 180 182 181
314 229 225 188 197 219 226 228 213 220 217 180 213 211 229 233 322 84 80 155 157 157 153 147 158 190 217 222 159 146 140 114 128 121 109 103 121 126 129 119 107 125 155 172 180 180 180 181 181 180 180 176 175 177
232 297 212 213 226 213 224 216 228 213 188 214 241 236 242 237 298 210 195 183 177 184 198 199 189 172 142 135 133 159 158 174 179 189 203 216 182 195 171 159 150 149 153 160 163 168 170 170 171 172 169 168 167 165
205 276 261 220 226 229 202 215 226 173 240 253 273 268 260 256 227 210 197 193 204 210 208 196 170 186 188 183 172 160 167 176 200 222 225 236 204 135 159 168 163 158 160 159 155 148 139 142 140 150 157 154 160 166
267 249 253 247 262 293 253 236 257 252 253 256 252 254 265 285 258 226 220 214 204 189 181 193 193 202 187 186 184 184 195 190 192 189 176 125 130 150 166 169 164 163 166 164 159 162 164 165 169 168 169 172 175 176
215 226 247 251 236 119 253 260 280 266 259 243 253 237 237 241 246 214 206 199 200 205 205 199 197 196 192 181 158 127 92 142 170 184 176 168 164 165 164 162 163 168 169 170 172 172 174 177 180 183 185 187 183 186
232 226 238 262 239 241 187 250 257 273 252 257 254 245 242 248 255 207 171 213 211 207 199 194 190 172 173 176 175 167 159 149 146 153 161 163 161 161 158 162 167 167 170 175 177 176 182 188 186 186 185 182 177 178